Lexington Weather

Lexington, Massachusetts, USA

71°F
9/22/2021 2:13pm 
  • Lexington Conditions: Light rain, Mist, Overcast
  • Temperature: 71.4°F / 21.9°CColder 3.6°F than last hour.
  • Dew Point: 69.3°FIncreased 0.6°Fsince last hour.
  • Relative Humidity: 93%Increased 12.0% since last hour.
  • Wind: Wind from W W 4 mph, 10-min avg: 2 mph, gust: 7 mph
  • Barometer: 30.09 in Steady
  • Visibility: 2 miles
  • Rain Today: 0.00 in
  •   

Regional Weather Roundup
for Boston / Norton, MA

        
000
ASUS41 KBOX 161405
RWRBOX

REGIONAL WEATHER ROUNDUP
NATIONAL WEATHER SERVICE BOSTON/NORTON MA
1000 AM EDT THU SEP 16 2021

NOTE:  "FAIR" INDICATES FEW OR NO CLOUDS BELOW 12,000 FEET WITH NO 
SIGNIFICANT WEATHER AND/OR OBSTRUCTIONS TO VISIBILITY.

MAZALL-161500-
EASTERN MASSACHUSETTS
  
CITY           SKY/WX    TMP DP  RH WIND       PRES   REMARKS
BOSTON         CLOUDY    70  64  81 NE7       30.24R                  
BEVERLY        CLOUDY    68  66  93 N6        30.24R                  
LAWRENCE       PTSUNNY   70  65  84 N8        30.27R                  
BEDFORD        PTSUNNY   69  67  93 N7        30.23R                  
BLUE HILL      NOT AVBL                                               
NORWOOD        PTSUNNY   69  65  86 SE6       30.22R                  
MARSHFIELD     PTSUNNY   66  64  94 SE3       30.24R                  
PLYMOUTH       CLOUDY    66  64  93 N5        30.25R                  
TAUNTON        LGT RAIN  67  64  90 E3        30.24R                  
NEW BEDFORD    LGT RAIN  67  66  97 VRB5      30.24R                  
$$

MAZALL-161500-
CAPE COD AND THE ISLANDS
  
CITY           SKY/WX    TMP DP  RH WIND       PRES   REMARKS
FALMOUTH       PTSUNNY   66  66 100 NE12      30.22R                  
HYANNIS        MOSUNNY   67  66  97 NE7       30.22R                  
CHATHAM        MOSUNNY   66  64  93 E13       30.22F                  
PROVINCETOWN   LGT RAIN  65  65 100 NE10      30.26R                  
NANTUCKET      LGT RAIN  68  65  90 NE17G25   30.22S                  
MARTHAS VNYRD  SUNNY     68  66  93 NE12      30.23R                  
$$
 
MAZALL-161500-
CENTRAL AND WESTERN MASSACHUSETTS
  
CITY           SKY/WX    TMP DP  RH WIND       PRES   REMARKS
WORCESTER      CLOUDY    66  62  87 NE7       30.25R                  
FITCHBURG      MOSUNNY   69  61  75 NE3       30.26R                  
ORANGE         CLOUDY    67  62  84 N6        30.26S                  
SPRINGFIELD    PTSUNNY   67  64  87 N7        30.23R                  
WESTFIELD      PTSUNNY   68  64  87 N13       30.24R                  
NORTH ADAMS    CLOUDY    65  60  84 CALM      30.26R                  
PITTSFIELD     CLOUDY    64  61  90 NE5       30.25R                  
$$
 
RIZALL-161500-
RHODE ISLAND
  
CITY           SKY/WX    TMP DP  RH WIND       PRES   REMARKS
PROVIDENCE     LGT RAIN  68  67  96 NE10      30.22S                  
NEWPORT        PTSUNNY   67  66  97 NE13      30.23R                  
BLOCK ISLAND   PTSUNNY   68  65  90 NE12      30.20                   
SMITHFIELD     LGT RAIN  65  65 100 NE7       30.21F                  
WESTERLY       SUNNY     66  66 100 N8        30.20R                  
$$
 
CTZALL-161500-
CONNECTICUT
  
CITY           SKY/WX    TMP DP  RH WIND       PRES   REMARKS
BRADLEY INTL   PTSUNNY   66  64  93 N7        30.24R                  
HARTFORD       PTSUNNY   70  64  81 N7        30.22R                  
BRIDGEPORT     PTSUNNY   70  65  84 NE8       30.20R                  
DANBURY        PTSUNNY   70  64  81 NE9       30.23R                  
GROTON         PTSUNNY   69  66  90 NE10      30.18S                  
NEW HAVEN      PTSUNNY   71  68  90 N8        30.20R                  
CHESTER        FAIR      68  66  94 N7        30.21R                  
MERIDEN        MOSUNNY   69  64  84 N7        30.21R                  
WILLIMANTIC    SUNNY     67  64  90 N5        30.22R                  
OXFORD         MOSUNNY   67  65  93 N10       30.23R                  
$$

MEZ002-015-021-024-NHZ003-005-008-011-012-014-VTZ005-008-161500-
NORTHERN NEW ENGLAND
  
CITY           SKY/WX    TMP DP  RH WIND       PRES   REMARKS
PORTLAND ME    CLOUDY    66  60  81 N9        30.28R                  
BANGOR ME      PTSUNNY   62  57  83 N7        30.27R                  
CONCORD NH     NOT AVBL                                               
MANCHESTER NH  CLOUDY    68  60  75 N6        30.24R                  
NASHUA NH      CLOUDY    66  64  93 N5        30.26R                  
PORTSMOUTH NH  CLOUDY    67  62  84 E7        30.26R                  
JAFFREY NH     CLOUDY    65  62  90 CALM      30.27R                  
KEENE NH       PTSUNNY   65  60  84 N7        30.27R                  
BURLINGTON VT  MOSUNNY   62  55  77 CALM      30.29R                  
MT. WASHINGTON NOT AVBL                                               
$$

NYZ052-076-161500-
EASTERN NEW YORK
  
CITY           SKY/WX    TMP DP  RH WIND       PRES   REMARKS
ALBANY         MOSUNNY   62  56  80 NE7       30.27R                  
NEW YORK CITY  PTSUNNY   73  62  68 NE12      30.19R                  
$$
 
ANZALL-161500-
MARINE OBSERVATIONS
  
STATION/POSITION TIME  TEMP    WIND        PRES    VSBY  WAVE
                       AIR SEA DIR/SP/G                  HT/PER
                 (UTC) (F)     (DEG/KT/KT) (MB)    (MI)  (FT/S)
BOSTON BUOY      1340      67   90/  6/  8 1023.5R
BUZZARDS BAY     1300           60/ 18/ 19 1022.8R
NANTUCKET SOUND  1340   69 72   60/ 19/ 23 1022.3F
MASS BAY-STELLWA 1304   65     130/  4/  6 1022.4R  1 7/8  2/ 5
ISLE OF SHOALS   1300   65      60/ 10/ 11 1023.2R
S OF BLOCK IS    1326      69                N/A           3/ 6
$$

......................KEY.........................
  SKY/WX - SKY CONDITION/PRESENT WEATHER
  TMP    - TEMPERATURE IN FAHRENHEIT
  DWPT   - DEWPOINT IN FAHRENHEIT
  RH     - RELATIVE HUMIDITY IN PERCENT
  WIND   - DIRECTION AND SPEED IN MPH
  PRES   - MEAN SEA LEVEL PRESSURE IN INCHES OF HG
  WCI    - WIND CHILL INDEX
  VSB    - VISIBILITY IN MILES
  HX     - HEAT INDEX
  TC     - TEMPERATURE IN CELSIUS
  VRB    - VARIABLE WIND DIRECTION
  N/A    - NOT AVAILABLE
  
      

Other recent Regional Weather Roundups

Wed Sep 22, 2:04pm

Wed Sep 22, 1:04pm

Wed Sep 22, 12:05pm

Wed Sep 22, 11:04am

Wed Sep 22, 10:04am

Wed Sep 22, 9:04am

Wed Sep 22, 8:04am

Wed Sep 22, 7:04am

Wed Sep 22, 6:04am

Wed Sep 22, 5:04am

Wed Sep 22, 4:04am

Wed Sep 22, 3:04am

Wed Sep 22, 2:04am

Wed Sep 22, 1:04am

Wed Sep 22, 12:04am

Tue Sep 21, 11:04pm

Tue Sep 21, 10:04pm

Tue Sep 21, 9:04pm

Tue Sep 21, 8:04pm

Tue Sep 21, 7:04pm

Tue Sep 21, 6:04pm

Tue Sep 21, 5:04pm

Tue Sep 21, 4:04pm

Tue Sep 21, 3:04pm

Tue Sep 21, 2:04pm

Tue Sep 21, 1:04pm

Tue Sep 21, 12:04pm

Tue Sep 21, 11:04am

Tue Sep 21, 10:04am

Tue Sep 21, 9:04am

Tue Sep 21, 8:04am

Tue Sep 21, 7:04am

Tue Sep 21, 6:04am

Tue Sep 21, 5:04am

Tue Sep 21, 4:04am

Tue Sep 21, 3:04am

Tue Sep 21, 2:04am

Tue Sep 21, 1:04am

Tue Sep 21, 12:04am

Mon Sep 20, 11:04pm

Mon Sep 20, 10:04pm

Mon Sep 20, 9:04pm

Mon Sep 20, 8:04pm

Mon Sep 20, 7:04pm

Mon Sep 20, 6:04pm

Mon Sep 20, 5:04pm

Mon Sep 20, 4:04pm

Mon Sep 20, 3:04pm

Mon Sep 20, 2:04pm

Mon Sep 20, 1:04pm

Mon Sep 20, 12:04pm

Mon Sep 20, 11:04am

Mon Sep 20, 10:04am

Mon Sep 20, 9:04am

Mon Sep 20, 7:04am

Mon Sep 20, 6:04am

Mon Sep 20, 5:04am

Mon Sep 20, 4:04am

Mon Sep 20, 3:04am

Mon Sep 20, 2:04am

Mon Sep 20, 1:04am

Mon Sep 20, 12:04am

Sun Sep 19, 11:04pm

Sun Sep 19, 10:04pm

Sun Sep 19, 9:04pm

Sun Sep 19, 8:04pm

Sun Sep 19, 7:04pm

Sun Sep 19, 6:04pm

Sun Sep 19, 5:04pm

Sun Sep 19, 4:04pm

Sun Sep 19, 3:04pm

Sun Sep 19, 2:05pm

Sun Sep 19, 1:04pm

Sun Sep 19, 12:04pm

Sun Sep 19, 11:04am

Sun Sep 19, 10:05am

Sun Sep 19, 9:04am

Sun Sep 19, 8:04am

Sun Sep 19, 7:04am

Sun Sep 19, 6:04am

Sun Sep 19, 5:04am

Sun Sep 19, 4:04am

Sun Sep 19, 3:04am

Sun Sep 19, 2:04am

Sun Sep 19, 1:04am

Sun Sep 19, 12:04am

Sat Sep 18, 11:05pm

Sat Sep 18, 10:04pm

Sat Sep 18, 9:04pm

Sat Sep 18, 8:04pm

Sat Sep 18, 7:04pm

Sat Sep 18, 6:04pm

Sat Sep 18, 5:04pm

Sat Sep 18, 4:04pm

Sat Sep 18, 3:04pm

Sat Sep 18, 2:04pm

Sat Sep 18, 1:04pm

Sat Sep 18, 12:04pm

Sat Sep 18, 11:04am

Sat Sep 18, 10:04am

Sat Sep 18, 9:04am

Sat Sep 18, 8:04am

Sat Sep 18, 7:04am

Sat Sep 18, 6:04am

Sat Sep 18, 5:04am

Sat Sep 18, 4:04am

Sat Sep 18, 3:04am

Sat Sep 18, 2:04am

Sat Sep 18, 1:04am

Sat Sep 18, 12:04am

Fri Sep 17, 11:04pm

Fri Sep 17, 10:04pm

Fri Sep 17, 9:04pm

Fri Sep 17, 8:04pm

Fri Sep 17, 7:04pm

Fri Sep 17, 6:04pm

Fri Sep 17, 5:04pm

Fri Sep 17, 4:04pm

Fri Sep 17, 3:04pm

Fri Sep 17, 2:04pm

Fri Sep 17, 1:04pm

Fri Sep 17, 12:05pm

Fri Sep 17, 11:04am

Fri Sep 17, 10:04am

Fri Sep 17, 9:04am

Fri Sep 17, 8:04am

Fri Sep 17, 7:04am

Fri Sep 17, 6:04am

Fri Sep 17, 5:04am

Fri Sep 17, 4:04am

Fri Sep 17, 3:04am

Fri Sep 17, 2:04am

Fri Sep 17, 1:04am

Fri Sep 17, 12:04am

Thu Sep 16, 11:04pm

Thu Sep 16, 10:04pm

Thu Sep 16, 9:04pm

Thu Sep 16, 8:04pm

Thu Sep 16, 7:04pm

Thu Sep 16, 6:04pm

Thu Sep 16, 5:04pm

Thu Sep 16, 4:04pm

Thu Sep 16, 3:04pm

Thu Sep 16, 2:04pm

Thu Sep 16, 1:05pm

Thu Sep 16, 12:04pm

Thu Sep 16, 11:05am

Thu Sep 16, 9:04am

Thu Sep 16, 8:04am

Thu Sep 16, 7:04am

Thu Sep 16, 6:04am

Thu Sep 16, 5:04am

Thu Sep 16, 4:04am

Thu Sep 16, 3:04am

Thu Sep 16, 2:04am

Thu Sep 16, 1:04am

Thu Sep 16, 12:04am

Wed Sep 15, 11:04pm

Wed Sep 15, 10:04pm

Wed Sep 15, 9:04pm

Wed Sep 15, 8:04pm

Wed Sep 15, 7:04pm

Wed Sep 15, 6:04pm

Wed Sep 15, 5:05pm

Wed Sep 15, 4:04pm

Wed Sep 15, 3:04pm

Meta data:

ID: 43627467-4b47-4570-9305-6bbb8a158584
Link: https://api.weather.gov/products/43627467-4b47-4570-9305-6bbb8a158584